Retour au catalogue

STARLINK-36680

ActifCommunicationsVLEO
NORAD 68721·PAYLOAD·🇺🇸 United States

Lancé Apr 14, 2026 depuis Cape Canaveral Space Force Station

Loading…

Prochains Passages (prochaines 24 heures)

TLE

FraisSource: CelesTrak SupGP

Époque: Sep 15, 2026, 03:15 UTC

1 68721C 26081Y   26258.13590278 -.00049921  00000+0 -14750-2 0  2582
2 68721  53.1584 230.6245 0001443  91.6781  38.4141 15.34413080    19

Suivez STARLINK-36680 en temps réel avec AllMySat

Download on the App Store